DL8NDG-13 Weather Reports


Display with metric or nautical units.
time (UTC)temp
F
wind
direction
speed
MPH
gust
MPH
rain 1hr
in
rain 24hr
in
rain mn
in
humidity
%
barometer
mb
20260906084530 63 19 0.0 0.0 0.00 0.00 0.00 66 1027.2
20260906083020 61 11 0.0 0.0 0.00 0.00 0.00 72 1027.1
20260906081539 60 271 0.0 0.0 0.00 0.00 0.00 72 1027.1
20260906080019 60 266 0.0 0.0 0.00 0.00 0.00 74 1027.1
20260906074515 58 252 0.0 0.0 0.00 0.00 0.00 79 1027.0
20260906073010 56 258 0.0 0.0 0.00 0.00 0.00 84 1026.9
20260906071508 55 238 0.0 0.0 0.00 0.00 0.00 85 1026.8
20260906070008 54 240 0.0 0.0 0.00 0.00 0.00 84 1026.8
20260906064508 53 236 0.0 0.0 0.00 0.00 0.00 84 1026.7
20260906063008 52 235 0.0 0.0 0.00 0.00 0.00 83 1026.7
20260906061507 51 256 0.0 0.0 0.00 0.00 0.00 84 1026.7
20260906060004 50 256 0.0 0.0 0.00 0.00 0.00 85 1026.5
20260906054500 49 238 0.0 0.0 0.00 0.00 0.00 85 1026.5
20260906053106 49 256 0.0 0.0 0.00 0.00 0.00 85 1026.3
20260906051558 49 238 0.0 0.0 0.00 0.00 0.00 85 1026.0
20260906050114 49 252 0.0 0.0 0.00 0.00 0.00 85 1025.8
20260906044556 49 250 0.0 0.0 0.00 0.00 0.00 85 1026.0
20260906043053 49 250 0.0 0.0 0.00 0.00 0.00 85 1025.8
20260906041551 49 250 0.0 0.0 0.00 0.00 0.00 85 1025.7
20260906034559 50 284 0.0 0.0 0.00 0.01 0.00 84 1025.6
20260906033045 51 249 0.0 0.0 0.00 0.01 0.00 84 1025.6
20260906031549 51 270 0.0 0.0 0.00 0.01 0.00 83 1025.6
20260906030039 52 270 0.0 0.0 0.00 0.01 0.00 83 1025.5
20260906024536 53 271 0.0 0.0 0.00 0.07 0.00 82 1025.6
20260906023034 53 273 0.0 0.0 0.00 0.07 0.00 81 1025.6
20260906021533 54 252 0.0 0.0 0.00 0.07 0.00 81 1025.5
20260906020048 53 250 0.0 0.0 0.00 0.07 0.00 81 1025.4
20260906014534 54 250 0.0 0.0 0.00 0.09 0.00 81 1025.3
20260906013028 54 250 0.0 0.0 0.00 0.09 0.00 80 1025.1
20260906011528 54 271 0.0 0.0 0.00 0.09 0.00 79 1025.0
20260906010027 55 273 0.0 0.0 0.00 0.09 0.00 79 1025.0
20260906004526 54 252 0.0 0.0 0.00 0.19 0.00 80 1025.0
20260906003027 54 250 0.0 0.0 0.00 0.19 0.00 80 1025.1
20260906001626 54 250 0.0 0.0 0.00 0.19 0.00 80 1024.9
20260906000023 54 251 0.0 0.0 0.00 0.19 0.00 81 1024.9
20260905234519 54 250 0.0 0.0 0.00 0.19 0.00 80 1024.7
20260905233018 55 273 0.0 0.0 0.00 0.19 0.00 79 1024.6
20260905231515 55 271 0.0 0.0 0.00 0.19 0.00 79 1024.6
20260905230013 55 270 0.0 0.0 0.00 0.19 0.00 79 1024.4
20260905224512 55 252 0.0 0.0 0.00 0.21 0.00 79 1024.3
20260905223028 55 252 0.0 0.0 0.00 0.21 0.00 78 1024.0
20260905221519 56 254 0.0 0.0 0.00 0.21 0.00 78 1024.0
20260905220003 56 252 0.0 0.0 0.00 0.21 0.00 77 1023.8
20260905214501 57 252 0.0 0.0 0.00 0.21 0.21 76 1023.8
20260905213107 57 252 0.0 0.0 0.00 0.21 0.21 75 1023.5
20260905211558 57 252 0.0 0.0 0.00 0.21 0.21 74 1023.5
20260905210108 58 253 0.0 0.0 0.00 0.21 0.21 71 1023.5
20260905204553 59 252 0.0 0.0 0.00 0.21 0.21 71 1023.4
20260905203056 60 251 0.0 0.0 0.00 0.21 0.21 70 1023.3
20260905201557 60 250 0.0 0.0 0.00 0.21 0.21 68 1023.2
20260905200100 62 271 0.0 0.0 0.00 0.21 0.21 65 1023.1
20260905194548 63 271 0.0 0.0 0.00 0.21 0.21 63 1022.9
20260905193045 64 272 0.0 0.0 0.00 0.21 0.21 61 1022.8
20260905191544 64 254 0.0 0.0 0.00 0.21 0.21 59 1022.7
20260905190044 65 251 0.0 0.0 0.00 0.21 0.21 58 1022.5
20260905184540 66 250 0.0 0.0 0.00 0.21 0.21 56 1022.1
20260905183038 66 242 0.0 0.0 0.00 0.21 0.21 54 1021.9
20260905181537 68 242 0.0 0.0 0.00 0.21 0.21 52 1021.7
20260905180037 68 242 0.0 0.0 0.00 0.21 0.21 50 1021.3
20260905174533 69 278 3.0 9.0 0.00 0.21 0.21 48 1021.2
20260905173029 70 255 5.0 15.0 0.00 0.21 0.21 46 1020.8
20260905171541 71 249 5.0 13.0 0.00 0.21 0.21 46 1020.8
20260905170030 72 270 5.0 11.0 0.00 0.21 0.21 46 1020.6
20260905164524 72 221 5.0 13.0 0.00 0.21 0.21 45 1020.5
20260905163024 74 215 6.0 14.0 0.00 0.21 0.21 43 1020.3
20260905161533 75 232 1.0 12.0 0.00 0.21 0.21 43 1020.1
20260905160003 74 246 8.0 17.0 0.00 0.21 0.21 43 1019.9
20260905154502 75 206 5.0 16.0 0.00 0.21 0.21 42 1019.7
20260905153100 75 259 6.0 16.0 0.00 0.21 0.21 41 1019.7
20260905151558 75 211 6.0 13.0 0.00 0.21 0.21 43 1019.6
20260905150058 75 209 8.0 14.0 0.00 0.21 0.21 43 1019.5
20260905144557 75 211 6.0 12.0 0.00 0.21 0.21 45 1019.4
20260905143055 76 184 8.0 14.0 0.00 0.21 0.21 47 1019.5
20260905141555 75 232 5.0 13.0 0.00 0.21 0.21 50 1019.5
20260905140054 75 207 10.0 19.0 0.00 0.21 0.21 48 1019.5
20260905134556 74 196 7.0 14.0 0.00 0.21 0.21 49 1019.5
20260905133052 76 188 8.0 14.0 0.00 0.21 0.21 47 1019.4
20260905131547 75 202 8.0 16.0 0.00 0.21 0.21 49 1019.4
20260905130046 74 200 9.0 20.0 0.00 0.21 0.21 50 1019.5
20260905124549 75 193 9.0 15.0 0.00 0.21 0.21 52 1019.4
20260905123042 74 186 8.0 15.0 0.00 0.21 0.21 55 1019.4
20260905121541 74 231 8.0 15.0 0.00 0.21 0.21 60 1019.5
20260905120039 73 200 7.0 12.0 0.00 0.21 0.21 64 1019.3
20260905114539 73 360 9.0 16.0 0.00 0.21 0.21 63 1019.3
20260905113037 73 174 6.0 18.0 0.00 0.21 0.21 61 1019.2
20260905111536 72 360 9.0 14.0 0.00 0.21 0.21 63 1019.3
20260905110036 69 221 4.0 9.0 0.00 0.21 0.21 71 1019.4
20260905104543 68 255 4.0 10.0 0.00 0.21 0.21 70 1019.5
20260905103036 70 188 5.0 13.0 0.00 0.21 0.21 67 1019.5
20260905101537 69 190 9.0 16.0 0.00 0.21 0.21 66 1019.6
20260905100031 69 204 6.0 10.0 0.00 0.21 0.21 71 1019.4
20260905094529 68 202 6.0 12.0 0.00 0.21 0.21 75 1019.6
20260905093026 66 188 4.0 13.0 0.00 0.21 0.21 78 1019.6
20260905091524 66 238 5.0 9.0 0.00 0.21 0.21 78 1019.6
20260905090023 66 250 6.0 13.0 0.00 0.21 0.21 78 1019.4